This is the latest recevied weather packets stored in our database for station/object OE-11140. If no packets are shown the sender has not sent any weather packets the latest 10 day(s).
| Time | Temp. | Humidity | Pressure | Rain* | Wind** | Luminosity | Snow |
|---|---|---|---|---|---|---|---|
| 1788239117 | 11.67° C | 91% | 1023.3 hPa | 0 mm | - | 13 W/m² | - |
| 1788238517 | 11.67° C | 91% | 1023.2 hPa | 0 mm | - | 7 W/m² | - |
| 1788237917 | 11.67° C | 92% | 1023.4 hPa | 0 mm | - | 0 W/m² | - |
| 1788237317 | 11.67° C | 92% | 1023.4 hPa | 0 mm | - | 0 W/m² | - |
| 1788236717 | 11.67° C | 93% | 1023.4 hPa | 0 mm | - | 0 W/m² | - |
| 1788222318 | 14.44° C | 88% | 1022.4 hPa | 0 mm | - | 0 W/m² | - |
| 1788221717 | 14.44° C | 87% | 1022.4 hPa | 0 mm | - | 0 W/m² | - |
| 1788220517 | 14.44° C | 88% | 1022.1 hPa | 0 mm | - | 0 W/m² | - |
| 1788219317 | 14.44° C | 86% | 1022.2 hPa | 0 mm | - | 0 W/m² | - |
| 1788216317 | 15° C | 84% | 1021.8 hPa | 0 mm | - | 0 W/m² | - |
| 1788215717 | 14.44° C | 85% | 1021.8 hPa | 0 mm | - | 0 W/m² | - |
| 1788215117 | 15° C | 81% | 1021.6 hPa | 0 mm | - | 0 W/m² | - |
| 1788214517 | 15° C | 82% | 1021.8 hPa | 0 mm | - | 0 W/m² | - |
| 1788213917 | 15° C | 83% | 1021.8 hPa | 0 mm | - | 0 W/m² | - |
| 1788212717 | 15° C | 86% | 1021.6 hPa | 0 mm | - | 0 W/m² | - |
| 1788212117 | 15° C | 84% | 1021.5 hPa | 0 mm | - | 0 W/m² | - |
| 1788211517 | 15° C | 83% | 1021.4 hPa | 0 mm | - | 0 W/m² | - |
| 1788210917 | 15° C | 84% | 1021.5 hPa | 0 mm | - | 0 W/m² | - |
| 1788210317 | 15° C | 82% | 1021 hPa | 0 mm | - | 0 W/m² | - |
| 1788209717 | 15° C | 84% | 1021 hPa | 0 mm | - | 0 W/m² | - |
| 1788209117 | 15.56° C | 80% | 1020.9 hPa | 0 mm | - | 0 W/m² | - |
| 1788208517 | 15.56° C | 82% | 1020.7 hPa | 0 mm | - | 0 W/m² | - |
| 1788207917 | 15.56° C | 80% | 1020.8 hPa | 0 mm | - | 0 W/m² | - |
| 1788207317 | 15.56° C | 81% | 1020.6 hPa | 0 mm | - | 0 W/m² | - |
| 1788206717 | 15.56° C | 81% | 1020.7 hPa | 0.25 mm | - | 0 W/m² | - |
* Rain latest hour (hover to see other rain measurements)
** Current wind speed in m/s (hover to see current wind gust speed)